This demonstration page uses our WeatherBlox Daily Observations layout. Learn more.

Left ArrowRight Arrow

41.86663, -103.66717

Hourly Observations for April 5, 2017

Temp ( °F °C ) Dew Point ( °F °C ) Humidity (%) Winds ( mph kmh ) Pressure ( in mb ) Visibility ( mi km ) Precip ( " mm )
12:53 am 00:53 Clear 29 -1.7 24 -4.4 82 82 WNW 7 11 30.19 1023 10 16 N/A
1:53 am 01:53 Clear 30 -1.1 25 -3.9 82 82 WNW 8 13 30.19 1022 10 16 N/A
2:53 am 02:53 Clear 29 -1.7 24 -4.4 82 82 WNW 8 13 30.19 1022 10 16 N/A
3:53 am 03:53 Clear 29 -1.7 24 -4.4 82 82 WNW 8 13 30.19 1022 10 16 N/A
4:53 am 04:53 Clear 28 -2.2 24 -4.4 85 85 NW 7 11 30.20 1023 10 16 N/A
5:53 am 05:53 Clear 28 -2.2 24 -4.4 85 85 WNW 9 15 30.20 1023 10 16 N/A
6:53 am 06:53 Sunny 27 -2.8 23 -5 85 85 VRB 5 7 30.22 1023 10 16 N/A
7:53 am 07:53 Sunny 32 undefined 26 -3.3 79 79 WNW 9 15 30.23 1024 10 16 N/A
8:53 am 08:53 Sunny 37 2.8 27 -2.8 67 67 WNW 8 13 30.22 1024 10 16 N/A
9:53 am 09:53 Sunny 43 6.1 28 -2.2 56 56 WNW 9 15 30.20 1023 10 16 N/A
10:53 am 10:53 Sunny 47 8.3 26 -3.3 44 44 SW 8 13 30.16 1021 10 16 N/A
11:53 am 11:53 Sunny 49 9.4 23 -5 36 36 WSW 9 15 30.14 1021 10 16 N/A
12:53 pm 12:53 Sunny 52 11.1 21 -6.1 30 30 VRB 3 6 30.09 1019 10 16 N/A
1:53 pm 13:53 Sunny 56 13.3 19 -7.2 24 24 WNW 10 17 30.06 1018 10 16 N/A
2:53 pm 14:53 Partly Cloudy 58 14.4 18 -7.8 21 21 WNW 15 24 30.04 1017 10 16 N/A
3:53 pm 15:53 Sunny 59 15 15 -9.4 18 18 NW 17 28 30.03 1017 10 16 N/A
4:53 pm 16:53 Sunny 59 15 15 -9.4 18 18 NW 16 26 30.02 1017 10 16 N/A
5:53 pm 17:53 Sunny 57 13.9 15 -9.4 19 19 NW 14 22 30.03 1017 10 16 N/A
6:53 pm 18:53 Mostly Sunny 54 12.2 19 -7.2 25 25 NNW 8 13 30.04 1017 10 16 N/A
7:53 pm 19:53 Mostly Cloudy 49 9.4 23 -5 36 36 N 6 9 30.05 1018 10 16 N/A
8:53 pm 20:53 Cloudy 45 7.2 27 -2.8 49 49 N N/A 30.09 1019 10 16 N/A
9:53 pm 21:53 Cloudy 45 7.2 26 -3.3 48 48 ESE 5 7 30.09 1019 10 16 N/A
10:53 pm 22:53 Mostly Cloudy 41 5 24 -4.4 51 51 E 3 6 30.11 1020 10 16 N/A
11:53 pm 23:53 Mostly Cloudy 39 3.9 25 -3.9 57 57 N N/A 30.13 1020 10 16 N/A

Powered by AerisWeather